Riverside March, CA

3:05 AM PST on December 15, 2017 (GMT -0800)
March Air Reserve Base

Weather History for KRIV - March, 2013

Change the Weather History Date:

Thursday, March 14, 2013

  Actual Average Record
Temperature  
Mean Temperature 65 °F -  
Max Temperature 90 °F 69 °F 90 °F (2013)
Min Temperature 41 °F 42 °F 35 °F (2002)
Growing Degree Days 15 (Base 50)    
Moisture  
Dew Point 46 °F    
Average Humidity 59    
Maximum Humidity 91    
Minimum Humidity 25    
Precipitation  
Precipitation 0.00 in - - ()
Sea Level Pressure  
Sea Level Pressure 30.06 in    
Wind  
Wind Speed 2 mph (WNW)    
Max Wind Speed 16 mph    
Max Gust Speed -    
Visibility 10 miles    
Events      
Averages and records for this station are not official NWS values.
T = Trace of Precipitation, MM = Missing Value Source: NWS Daily Summary

Daily Weather History Graph

Daily Weather History Graph

Search for Another Location

Airport or City:

Trip Planner

Search our weather history database for the weather conditions in past years. The results will help you decide how hot, cold, wet, or windy it might be!

Date:

Astronomy

Mar. 14, 2013 Rise Set
Actual Time 7:00 AM PDT 6:56 PM PDT
Civil Twilight 6:35 AM PDT 7:21 PM PDT
Nautical Twilight 6:06 AM PDT 7:50 PM PDT
Astronomical Twilight 5:37 AM PDT 8:19 PM PDT
Moon 8:26 AM PDT (3/14) 10:05 PM PDT (3/14)
Length of Visible Light 12h 45m
Length of Day
11h 55m
Waxing Crescent, 9% of the Moon is Illuminated
Mar 14
Waxing Crescent
Mar 19
First Quarter
Mar 27
Full
Apr 2
Last Quarter
Apr 10
New

Hourly Weather History & Observations

Time (PDT) Temp. Dew Point Humidity Pressure Visibility Wind Dir Wind Speed Gust Speed Precip Events Conditions
12:58 AM 48.9 °F 43.5 °F 82% 30.10 in 10.0 mi Calm Calm - N/A   Clear
1:58 AM 46.2 °F 42.3 °F 86% 30.08 in 10.0 mi Calm Calm - N/A   Clear
2:58 AM 45.3 °F 41.9 °F 88% 30.08 in 10.0 mi NNE 1.2 mph - N/A   Clear
3:58 AM 46.9 °F 43.0 °F 86% 30.08 in 10.0 mi WNW 3.5 mph - N/A   Clear
4:58 AM 43.5 °F 40.6 °F 90% 30.08 in 10.0 mi Calm Calm - N/A   Clear
5:58 AM 41.7 °F 38.8 °F 89% 30.09 in 10.0 mi Calm Calm - N/A   Clear
6:58 AM 43.0 °F 40.5 °F 91% 30.09 in 10.0 mi South 2.3 mph - N/A   Clear
7:58 AM 49.8 °F 46.4 °F 88% 30.10 in 10.0 mi East 1.2 mph - N/A   Clear
8:58 AM 58.5 °F 49.1 °F 71% 30.12 in 10.0 mi Calm Calm - N/A   Partly Cloudy
9:58 AM 68.2 °F 51.1 °F 54% 30.11 in 10.0 mi South 3.5 mph - N/A   Clear
10:58 AM 77.7 °F 53.1 °F 42% 30.10 in 10.0 mi SE 3.5 mph - N/A   Clear
11:58 AM 82.6 °F 50.7 °F 33% 30.09 in 10.0 mi Variable 1.2 mph - 0.00 in   Clear
12:58 PM 87.6 °F 52.2 °F 30% 30.06 in 10.0 mi Variable 2.3 mph - N/A   Partly Cloudy
1:58 PM 88.9 °F 49.6 °F 26% 30.02 in 10.0 mi Variable 1.2 mph - N/A   Scattered Clouds
2:58 PM 89.6 °F 51.4 °F 27% 30.01 in 10.0 mi WSW 3.5 mph - N/A   Scattered Clouds
3:58 PM 88.0 °F 52.7 °F 30% 30.01 in 10.0 mi WNW 15.0 mph - N/A   Scattered Clouds
4:58 PM 85.6 °F 45.7 °F 25% 30.01 in 10.0 mi WNW 16.1 mph - N/A   Scattered Clouds
5:58 PM 82.4 °F 46.9 °F 29% 30.01 in 10.0 mi NW 10.4 mph - N/A   Scattered Clouds
6:58 PM 73.8 °F 44.4 °F 35% 30.02 in 10.0 mi NW 9.2 mph - N/A   Partly Cloudy
7:58 PM 69.6 °F 45.9 °F 43% 30.04 in 10.0 mi North 5.8 mph - N/A   Scattered Clouds
8:58 PM 61.9 °F 47.8 °F 60% 30.05 in 10.0 mi NW 1.2 mph - N/A   Scattered Clouds
9:58 PM 58.8 °F 46.9 °F 65% 30.05 in 10.0 mi West 5.8 mph - N/A   Scattered Clouds
10:58 PM 59.5 °F 46.0 °F 61% 30.04 in 10.0 mi Calm Calm - N/A   Mostly Cloudy
11:58 PM 51.8 °F 43.9 °F 74% 30.04 in 10.0 mi Calm Calm - N/A   Clear